Weather History for Newark Heath, OH

Change the Weather History Date:

Saturday, April 12, 2014

  Actual Average Record
Temperature  
Mean Temperature 56 °F -  
Max Temperature 75 °F 63 °F 82 °F (1977)
Min Temperature 36 °F 37 °F 21 °F (1940)
Degree Days  
Heating Degree Days 10    
Growing Degree Days 6 (Base 50)    
Moisture  
Dew Point 41 °F    
Average Humidity 62    
Maximum Humidity 93    
Minimum Humidity 28    
Precipitation  
Precipitation 0.00 in - - ()
Sea Level Pressure  
Sea Level Pressure 30.07 in    
Wind  
Wind Speed 4 mph (South)    
Max Wind Speed 15 mph    
Max Gust Speed 24 mph    
Visibility 10 miles    
Events      
Averages and records for this station are not official NWS values.
T = Trace of Precipitation, MM = Missing Value Source: NWS Daily Summary

Daily Weather History Graph

Daily Weather History Graph

Search for Another Location

Airport:

Trip Planner

Search our weather history database for the weather conditions in past years. The results will help you decide how hot, cold, wet, or windy it might be!

Date:

Astronomy

Apr. 12, 2014 Rise Set
Actual Time 6:56 AM EDT 8:05 PM EDT
Civil Twilight 6:28 AM EDT 8:33 PM EDT
Nautical Twilight 5:55 AM EDT 9:06 PM EDT
Astronomical Twilight 5:20 AM EDT 9:41 PM EDT
Moon 5:42 PM EDT (4/12) 5:22 AM EDT (4/12)
Length of Visible Light 14h 04m
Length of Day
13h 08m
Waxing Gibbous, 93% of the Moon is Illuminated
Apr 12
Waxing Gibbous
Apr 15
Full
Apr 22
Last Quarter
Apr 29
New
May 6
First Quarter

Hourly Weather History & Observations

Time (EDT) Temp. Dew Point Humidity Pressure Visibility Wind Dir Wind Speed Gust Speed Precip Events Conditions
12:54 AM 42.1 °F 39.0 °F 89% 30.12 in 10.0 mi Calm Calm - N/A   Clear
1:54 AM 39.9 °F 37.9 °F 93% 30.11 in 10.0 mi Calm Calm - N/A   Clear
2:54 AM 39.9 °F 37.0 °F 89% 30.12 in 10.0 mi Calm Calm - N/A   Clear
3:54 AM 37.9 °F 36.0 °F 93% 30.12 in 9.0 mi Calm Calm - N/A   Clear
4:54 AM 37.0 °F 35.1 °F 93% 30.14 in 6.0 mi Calm Calm - N/A   Clear
5:54 AM 36.0 °F 34.0 °F 93% 30.16 in 6.0 mi Calm Calm - N/A   Clear
6:54 AM 36.0 °F 34.0 °F 93% 30.18 in 8.0 mi Calm Calm - N/A   Clear
7:54 AM 37.9 °F 36.0 °F 93% 30.20 in 8.0 mi Calm Calm - N/A   Clear
8:54 AM 46.0 °F 42.1 °F 86% 30.19 in 10.0 mi Calm Calm - N/A   Clear
9:54 AM 57.9 °F 45.0 °F 62% 30.18 in 10.0 mi South 10.4 mph - N/A   Clear
10:54 AM 63.0 °F 42.1 °F 46% 30.18 in 10.0 mi South 10.4 mph - N/A   Clear
11:54 AM 66.9 °F 37.9 °F 34% 30.15 in 10.0 mi South 12.7 mph 19.6 mph N/A   Clear
12:54 PM 70.0 °F 35.1 °F 28% 30.11 in 10.0 mi South 12.7 mph - N/A   Clear
1:54 PM 72.0 °F 39.0 °F 30% 30.08 in 10.0 mi South 12.7 mph 24.2 mph N/A   Clear
2:54 PM 73.9 °F 43.0 °F 33% 30.06 in 10.0 mi South 12.7 mph - N/A   Partly Cloudy
3:54 PM 73.9 °F 42.1 °F 32% 30.01 in 10.0 mi SSE 9.2 mph 21.9 mph N/A   Clear
4:54 PM 75.9 °F 45.0 °F 33% 29.99 in 10.0 mi SW 11.5 mph - N/A   Partly Cloudy
5:54 PM 75.0 °F 46.0 °F 36% 29.98 in 10.0 mi SSW 15.0 mph 19.6 mph N/A   Clear
6:54 PM 75.0 °F 46.9 °F 37% 29.95 in 10.0 mi South 11.5 mph - N/A   Clear
7:54 PM 72.0 °F 48.0 °F 43% 29.94 in 10.0 mi SSW 5.8 mph - N/A   Partly Cloudy
8:54 PM 69.1 °F 46.9 °F 45% 29.93 in 10.0 mi South 3.5 mph - N/A   Clear
9:54 PM 62.1 °F 48.9 °F 62% 29.92 in 10.0 mi South 4.6 mph - N/A   Clear
10:54 PM 55.9 °F 48.9 °F 77% 29.91 in 10.0 mi WSW 5.8 mph - N/A   Clear
11:54 PM 55.9 °F 46.9 °F 72% 29.89 in 10.0 mi SSW 3.5 mph - N/A   Clear